Regional Weather Roundup
Issued by NWS Sterling, VA

Home | Current Version | Previous Version | Graphics & Text | Print | Product List | Glossary On
Versions: 1 2 3 4 5 6 7 8 9 10 11 12 13 14 15 16 17 18 19 20 21 22 23 24 25 26 27 28 29 30 31 32 33 34 35 36 37 38 39 40 41 42 43 44
000
ASUS41 KLWX 280410
RWRLWX

REGIONAL WEATHER ROUNDUP
NATIONAL WEATHER SERVICE BALTIMORE MD/WASHINGTON DC
1200 AM EDT FRI AUG 28 2015

Note: "FAIR" indicates few or no clouds below 12,000 feet
with no significant weather and/or obstructions to visibility.
 TC=TEMPERATURE CELSIUS

 * =Non NWS site. Station does not report precipitation (e.g. rain,
    snow, etc.), thunder, or fog.

DCZ001-MDZ009-015-VAZ040>042-051-053>054-280500-
WASHINGTON METRO

CITY           SKY/WX    TMP DP  RH WIND       PRES   REMARKS
WASHINGTON NAT PTCLDY    72  58  61 CALM      30.16S
DULLES         PTCLDY    62  56  80 CALM      30.17R
ANDREWS AFB    CLEAR     64  58  83 CALM      30.15S
FT BELVOIR     CLEAR     62  59  90 CALM      30.16R
QUANTICO       CLEAR     65  60  84 NW9       30.16S
COLLEGE PARK*  CLEAR     63  61  94 CALM      30.15S
LEESBURG*      CLEAR     63  61  94 CALM      30.18R
MANASSAS*      CLEAR     63  61  94 CALM      30.16S
GAITHERSBURG*  CLEAR     57  54  88 CALM      30.21S

$$

MDZ006>007-011-014-280500-
BALTIMORE METRO

CITY           SKY/WX    TMP DP  RH WIND       PRES   REMARKS
BWI AIRPORT    CLEAR     62  58  86 CALM      30.15S
MD SCIENCE CTR   N/A     72  56  57 MISG      30.16R
MARTIN STATE   CLEAR     64  61  88 CALM      30.17R
ANNAPOLIS      CLEAR     69  64  84 CALM      30.14S
FORT MEADE*    CLEAR     57  55  94 CALM      30.18S

$$

MDZ012-015-019>023-280500-
MARYLAND EASTERN SHORE

CITY           SKY/WX    TMP DP  RH WIND       PRES   REMARKS
OCEAN CITY     PTCLDY    63  60  90 CALM      30.13S
SALISBURY      CLEAR     61  59  93 CALM      30.14R
BAY BRIDGE AP*   N/A     70  54  56 CALM      30.15S
CAMBRIDGE*     CLEAR     63  59  88 CALM      30.14R

$$

MDZ017>025-280500-
SOUTHERN MARYLAND

CITY           SKY/WX    TMP DP  RH WIND       PRES   REMARKS
PATUXENT RIVER CLEAR     62  59  90 W5        30.14S
ST INIGOES     CLEAR     62  59  90 CALM      30.13S
LEONARDTOWN*   CLEAR     61  55  82 CALM      30.17R

$$

MDZ003>005-280500-
NORTH CENTRAL MARYLAND

CITY           SKY/WX    TMP DP  RH WIND       PRES   REMARKS
FREDERICK*     CLEAR     55  55 100 CALM      30.20R
HAGERSTOWN APT CLEAR     63  55  75 CALM      30.18R
WESTMINSTER*   CLEAR     63  57  82 CALM      30.17S

$$

MDZ501>502-280500-
WESTERN MARYLAND

CITY           SKY/WX    TMP DP  RH WIND       PRES   REMARKS
OAKLAND*       PTCLDY    54  48  82 CALM      30.25S
CUMBERLAND*    CLEAR     57  55  94 NE5       30.23S

$$

VAZ025>031-280500-
SHENANDOAH VALLEY

CITY           SKY/WX    TMP DP  RH WIND       PRES   REMARKS
WINCHESTER*    CLOUDY    63  54  72 CALM      30.18S
FRONT ROYAL*   FAIR      59  55  88 CALM      30.17S
LURAY*         FAIR      59  55  88 CALM      30.18S
NEW MARKET*    CLOUDY    61  55  81 CALM      30.18S
STAUNTON*      CLOUDY    70  56  62 CALM      30.21S
WAYNESBORO*    CLOUDY    70  56  63 CALM      30.20S

$$

WVZ021-048>050-054>055-280500-
EASTERN WEST VIRGINIA PANHANDLE

CITY           SKY/WX    TMP DP  RH WIND       PRES   REMARKS
MARTINSBURG    MOCLDY    58  55  90 CALM      30.18S
PETERSBURG*    PTCLDY    57  55  92 CALM      30.21S

$$

VAZ036>039-050-280500-
CENTRAL FOOTHILLS

CITY           SKY/WX    TMP DP  RH WIND       PRES   REMARKS
CHARLOTTESVILL MOCLDY    66  58  75 N3        30.17R
CULPEPER*      MOCLDY    61  58  91 N3        30.17S
ORANGE*        MOCLDY    63  61  94 CALM      30.18R
GORDONSVILLE*  FAIR      62  60  96 CALM      30.16S
WARRENTON*     FAIR      58  57  96 CALM      30.16S

$$

VAZ055>057-280500-
NORTH AND CENTRAL PIEDMONT

CITY           SKY/WX    TMP DP  RH WIND       PRES   REMARKS
FREDERICKSBRG* PTCLDY    65  60  83 CALM      30.14S
STAFFORD*      CLEAR     60  58  92 CALM      30.19F

$$

NCZ024-NYZ072-PAZ021-071-VAZ022-071-280500-
OTHER REGIONAL OBSERVATIONS

CITY           SKY/WX    TMP DP  RH WIND       PRES   REMARKS
NEW YORK CITY  CLEAR     70  52  52 CALM      30.15R
PHILADELPHIA   PTCLDY    70  54  56 N3        30.15R
PITTSBURGH     PTCLDY    63  57  81 CALM      30.19S
ROANOKE        PTCLDY    69  59  70 CALM      30.19R
RICHMOND       PTCLDY    67  62  84 NE5       30.14S
RALEIGH        PTCLDY    66  60  81 CALM      30.13S

$$

ANZ530>537-280500-
MARINE OBSERVATIONS

STATION/POSITION TIME  TEMP    WIND        PRES
                       AIR SEA DIR/SP/G
                 (UTC) (F)     (DEG/KT/KT) (MB)
THOMAS PT LIGHT  NOT AVBL
BALT KEY BRIDGE  0300   72     350/  5/  6 1020.8R
COVE POINT       0300   75      70/  9/ 10 1021.2R
LEWISETTA        0300   72 80  230/  2/  3 1020.1R
SOLOMONS ISLAND  0300      81                N/A
PINEY POINT      0300           50/  4/  4   N/A

$$




USA.gov is the U.S. government's official web portal to all federal, state and local government web resources and services.